Location: Brno
(49.2000°N, 16.6330°E)
Time: 00:07:10
(UTC+01:00)

Cosmos 1603 - Visible Passes

Search period start: 18 December 2014 00:00
Search period end: 28 December 2014 00:00
Orbit: 832 x 859 km, 71.0° (Epoch: 17 December)

Date Brightness Start Highest point End Pass type
(mag) Time Alt. Az. Time Alt. Az. Time Alt. Az.
18 Dec 4.3 16:44:25 10° NNW 16:49:34 35° NE 16:54:40 10° ESE visible
18 Dec 4.6 18:28:30 10° NW 18:33:53 48° WSW 18:39:12 10° S visible
19 Dec 4.3 16:30:36 10° NNW 16:35:43 34° NE 16:40:47 10° ESE visible
19 Dec 4.6 18:14:40 10° NW 18:20:03 49° WSW 18:25:24 10° S visible
20 Dec 4.6 18:00:49 10° NW 18:06:14 50° WSW 18:11:36 10° S visible
21 Dec 4.6 17:46:58 10° NW 17:52:25 52° WSW 17:57:48 10° S visible
22 Dec 6.1 06:59:57 10° SSE 07:04:40 28° ESE 07:09:23 10° NE visible
22 Dec 4.5 17:33:08 10° NW 17:38:35 53° WSW 17:43:59 10° S visible
23 Dec 6.1 06:46:11 10° SSE 06:50:51 27° ESE 06:55:31 10° NE visible
23 Dec 4.5 17:19:17 10° NW 17:24:46 55° WSW 17:30:11 10° S visible
24 Dec 6.2 06:32:25 10° SSE 06:37:02 26° ESE 06:41:39 10° NE visible
24 Dec 4.5 17:05:27 10° NW 17:10:56 56° WSW 17:16:22 10° S visible
25 Dec 6.2 06:18:40 10° SSE 06:23:14 26° ESE 06:27:47 10° NE visible
25 Dec 4.5 16:51:36 10° NW 16:57:06 58° WSW 17:02:33 10° S visible
26 Dec 6.2 06:04:54 10° SSE 06:09:25 25° ESE 06:13:54 10° NE visible
26 Dec 4.4 16:37:46 10° NW 16:43:17 59° WSW 16:48:45 10° S visible
27 Dec 6.2 05:51:09 10° SSE 05:55:36 24° ESE 06:00:02 10° NE visible
